GFSFLT2_925_temp_105.txt.gz
Temp
24 21 20 22 22 22 22 22 23 23 23 22 22 22 22 22 22 21 21 21 21 20 20 20 20 20 20 20 20 20 21 23
24 23 21 20 20 22 22 22 22 22 22 22 22 22 21 21 21 21 21 21 21 20 20 20 20 20 20 20 20 20 21 22
22 22 21 21 22 20 21 21 21 21 21 21 21 20 20 20 20 20 21 20 20 20 20 20 20 19 19 19 19 19 20 22
22 21 20 20 22 22 20 20 20 20 20 20 20 21 22 22 21 20 20 20 20 20 20 20 19 19 19 19 19 20 21 21
25 22 21 20 20 20 21 22 22 21 21 21 21 22 22 22 23 20 20 19 19 19 19 19 19 20 20 19 19 20 20 20
26 24 23 21 23 21 21 22 21 23 23 22 22 22 23 23 23 23 21 21 20 21 20 20 20 20 20 20 20 20 21 20
26 25 24 23 22 23 23 22 22 21 21 21 22 23 23 23 23 24 22 22 21 21 20 20 20 20 20 20 20 19 20 20
24 23 24 24 23 22 23 22 23 22 22 19 19 20 20 22 23 23 23 22 21 21 21 21 20 20 19 19 19 19 19 19
23 22 22 22 23 23 22 22 22 23 23 21 19 18 19 22 21 21 22 23 21 21 20 20 19 19 19 19 19 19 19 18
21 21 20 20 20 21 23 23 22 22 23 22 19 19 20 20 21 19 19 21 20 19 20 19 19 19 19 18 18 18 18 18
20 20 20 19 19 19 21 22 22 23 23 23 21 19 20 19 21 19 20 20 19 18 19 18 18 19 19 18 18 18 18 17
19 19 18 18 18 19 19 21 22 22 23 23 22 20 19 19 19 18 18 18 18 17 17 17 17 18 19 17 17 18 17 16
18 17 17 17 18 19 20 21 23 23 22 22 22 21 19 19 18 18 18 17 18 17 16 16 16 16 16 15 16 16 16 16
16 16 16 15 16 17 17 19 21 23 23 22 22 21 19 18 18 18 17 17 18 17 16 16 16 16 16 15 15 14 15 16
14 13 13 13 14 14 15 17 18 19 21 22 21 21 19 18 18 18 17 17 16 16 16 16 16 15 15 16 15 16 15 15
13 12 11 12 12 12 12 15 18 21 22 23 21 20 19 18 17 17 17 16 16 16 16 16 17 16 15 16 18 19 18 15
12 10 10 10 10 9 9 11 14 18 20 23 22 20 19 18 17 16 16 16 16 16 16 16 16 16 16 15 17 18 18 19
11 10 9 8 7 6 7 8 10 14 19 22 22 20 18 17 17 16 16 15 16 17 18 16 17 17 16 16 17 17 17 18
9 8 7 7 5 5 6 7 8 11 15 19 22 18 16 16 16 16 16 16 17 19 20 16 17 17 16 16 16 17 17 18
7 6 6 5 4 4 5 6 8 10 14 18 20 19 17 16 16 15 15 15 16 16 16 16 16 16 16 16 16 16 16 16

GFSFLT2_925_temp_108.txt.gz
Temp
24 24 23 22 23 22 22 23 23 22 22 22 22 22 22 22 22 22 22 21 21 21 21 20 20 20 20 20 20 21 21 21
24 23 22 21 22 22 21 22 22 22 22 22 22 21 22 22 22 21 21 21 21 21 21 20 20 20 20 20 20 20 21 22
24 23 22 20 20 21 21 21 21 21 22 21 21 21 21 20 21 21 21 20 20 20 20 20 20 20 19 19 19 20 20 21
24 23 22 21 22 21 21 21 21 21 21 21 21 20 20 20 20 20 20 20 20 20 20 20 19 19 19 19 19 19 20 20
22 23 22 21 22 22 21 20 20 20 20 20 21 20 21 21 21 21 20 20 19 19 19 19 19 19 19 19 19 19 19 20
25 23 22 22 21 21 21 22 21 21 21 21 21 21 21 22 22 21 21 20 20 19 19 19 19 19 20 20 19 19 19 20
25 24 23 22 21 21 21 22 22 22 22 21 21 21 22 22 22 22 21 21 20 20 20 20 20 20 20 20 19 19 19 20
24 23 22 22 22 22 21 21 22 22 22 22 21 22 22 23 23 23 22 22 22 21 21 21 20 20 20 20 20 19 19 19
23 22 22 21 21 21 22 22 21 22 22 22 22 22 21 22 23 23 23 22 22 22 21 21 20 20 20 19 19 19 19 19
21 21 20 20 20 20 21 21 23 22 22 22 21 21 21 20 21 22 22 23 22 21 21 21 20 19 19 19 19 18 18 18
20 20 19 19 19 19 19 20 21 22 22 22 22 20 20 19 20 21 22 22 21 20 20 20 19 19 19 19 19 18 18 18
19 18 17 17 18 18 19 19 20 21 22 22 22 21 20 19 19 20 20 20 20 20 19 19 19 19 19 19 18 18 18 17
16 16 16 15 16 17 17 18 20 21 21 22 23 22 20 19 19 19 19 19 19 18 18 19 18 18 19 18 17 17 17 17
15 15 14 13 14 14 14 14 15 16 18 20 21 22 22 20 19 19 19 18 18 18 17 17 17 18 17 15 15 15 16 16
14 13 12 12 12 12 13 13 14 16 17 19 20 22 22 21 19 19 19 18 16 17 17 16 17 16 17 16 14 15 14 16
13 12 12 11 11 10 10 10 11 12 13 16 20 21 21 21 20 18 18 19 18 17 17 16 17 16 16 16 18 17 15 14
12 10 10 9 9 8 7 7 8 10 11 13 16 18 21 21 19 18 18 17 17 17 17 16 16 16 16 16 16 17 18 16
10 8 8 8 7 6 5 5 6 7 8 10 12 16 19 20 20 18 17 17 17 17 18 16 16 17 16 16 16 17 17 16
8 7 7 7 6 4 4 4 4 5 7 8 10 13 17 18 19 18 17 16 17 17 16 15 16 16 16 16 16 17 17 17
7 6 6 5 4 4 3 3 4 5 6 8 9 12 15 18 16 19 18 17 16 16 17 16 16 16 17 16 16 16 17 17

GFSFLT2_925_temp_111.txt.gz
Temp
24 24 23 23 23 23 23 22 22 23 23 23 23 23 23 22 22 22 22 21 21 21 20 21 20 20 21 21 20 20 20 20
24 24 23 23 22 22 22 22 22 22 22 22 22 22 22 22 22 22 21 21 21 20 20 20 20 20 20 20 20 20 20 20
23 23 23 22 22 21 22 22 22 22 21 21 21 21 21 21 21 21 21 21 21 20 20 20 20 20 20 20 20 20 20 20
24 23 23 23 21 21 21 22 21 21 21 21 21 21 21 21 21 21 21 21 21 20 20 20 19 19 20 20 19 20 20 20
24 23 23 23 21 21 21 21 21 21 21 21 21 21 21 21 21 20 20 20 20 20 19 19 19 19 19 19 20 20 19 20
23 23 22 22 22 21 21 21 21 21 21 21 21 21 20 20 20 21 21 20 20 20 20 20 19 19 19 19 19 19 19 19
23 22 21 21 21 21 21 20 20 21 21 21 21 21 21 21 21 21 21 21 20 20 20 20 19 20 20 19 19 19 19 19
22 22 21 21 20 20 21 21 21 21 21 21 21 21 21 21 21 21 21 21 21 21 20 20 20 20 20 20 19 19 19 19
21 21 20 20 20 20 20 20 21 21 21 21 21 21 21 21 22 22 22 22 21 21 21 20 20 20 20 20 20 19 19 19
20 19 19 19 19 19 19 20 20 20 21 21 21 21 21 21 21 22 22 22 21 21 21 20 20 20 20 19 19 19 19 19
18 17 17 17 17 18 18 18 19 20 20 20 22 21 22 22 21 21 22 21 22 22 21 21 20 20 19 19 19 19 19 18
16 15 15 15 15 16 17 17 18 19 19 20 21 21 21 21 22 22 22 21 21 20 21 21 20 20 19 19 19 19 18 18
14 14 13 12 12 12 13 13 15 16 17 18 19 18 20 20 20 21 21 20 20 20 20 19 19 19 18 18 17 18 18 18
13 12 12 11 10 10 10 11 12 13 14 16 17 18 19 18 20 18 18 19 19 19 20 18 17 18 18 16 15 15 16 17
11 10 10 9 9 9 8 9 9 10 11 13 15 15 16 17 18 19 18 19 19 19 17 18 16 17 18 16 14 14 13 15
10 9 8 8 7 7 6 6 6 7 7 8 10 13 12 14 15 19 19 18 19 19 18 17 16 15 16 18 17 16 13 14
8 7 7 7 6 6 5 4 5 5 6 6 7 8 10 11 14 16 19 18 19 18 17 17 15 16 16 16 16 16 16 13
7 6 6 5 5 4 4 3 4 4 4 5 6 7 8 10 12 15 18 18 18 17 18 15 15 16 16 16 17 16 16 15
6 5 4 4 4 3 3 2 3 3 4 5 6 7 7 8 11 14 16 18 18 17 17 18 17 15 15 16 16 16 17 17
5 4 2 2 2 2 2 2 2 3 4 4 5 6 7 8 9 12 15 18 18 16 16 18 17 16 15 16 16 15 16 17

GFSFLT2_925_temp_114.txt.gz
Temp
25 24 24 23 23 23 23 23 23 23 23 23 23 23 23 23 22 22 22 22 21 20 20 20 20 20 20 20 20 19 19 20
25 24 23 23 23 22 23 23 23 23 23 22 22 23 23 23 22 22 22 22 21 20 20 20 20 20 20 20 19 19 19 19
24 24 23 23 22 22 22 22 22 22 22 21 21 21 22 22 22 22 21 21 21 21 20 20 20 20 20 20 19 19 19 19
23 23 23 22 22 21 21 21 21 22 21 21 20 21 21 21 21 21 21 21 21 21 20 20 20 19 19 19 19 19 19 19
23 24 22 22 22 21 20 20 21 21 21 21 21 21 21 20 21 21 20 20 20 20 20 19 19 20 19 19 19 19 19 19
23 23 22 21 21 20 21 20 20 21 21 21 21 21 20 20 20 20 21 20 20 20 20 20 19 19 19 19 19 19 19 19
21 21 20 20 20 20 21 21 21 21 21 21 21 21 21 20 20 21 21 21 20 20 20 19 19 19 19 19 19 19 19 19
20 20 20 20 20 20 19 19 19 20 20 20 20 21 21 21 20 20 20 20 21 20 20 20 19 19 19 19 19 19 19 19
18 18 18 18 18 18 19 19 18 18 18 19 19 20 20 21 20 20 21 20 21 20 20 19 19 19 19 19 19 19 19 19
17 18 18 17 17 17 18 18 18 18 19 18 18 19 20 20 20 20 21 20 20 20 20 19 18 19 19 19 19 19 19 19
15 16 16 16 16 16 17 17 17 17 17 18 18 18 18 20 21 21 21 20 20 20 19 19 18 18 18 19 19 19 19 18
14 14 14 14 15 15 15 15 16 16 16 17 17 17 18 17 19 21 21 21 20 19 18 19 19 19 18 18 19 19 19 18
12 12 11 12 11 11 11 11 12 14 14 14 15 15 16 17 17 17 19 20 20 20 20 17 17 18 17 17 17 18 18 19
10 10 10 9 8 8 8 8 10 11 11 13 14 13 14 14 14 15 16 17 18 18 19 19 19 18 18 17 16 15 17 18
8 8 8 7 7 7 6 7 7 8 10 11 12 12 12 12 13 13 14 15 17 18 18 19 19 17 16 14 14 16 14 15
7 6 6 6 6 5 4 4 4 4 5 5 7 9 10 10 10 12 13 14 15 17 17 17 18 16 15 16 14 14 13 14
5 5 5 4 4 4 3 3 3 3 4 4 5 5 6 9 9 9 11 13 15 16 16 16 17 15 15 14 14 14 15 13
4 3 3 3 2 2 3 2 2 3 3 4 5 5 6 6 7 8 9 11 13 15 16 16 16 16 15 16 16 15 15 13
4 2 2 1 1 1 2 2 2 2 2 3 3 4 5 6 6 7 8 9 11 13 15 15 14 14 15 15 15 16 17 16
2 2 2 1 0 0 1 1 1 1 1 2 2 4 4 5 5 7 7 9 10 12 14 15 15 14 15 15 14 16 16 16

GFSFLT2_925_temp_117.txt.gz
Temp
25 25 24 23 23 23 23 23 23 23 23 23 23 23 23 23 23 23 22 21 21 21 20 20 20 20 20 20 19 20 20 19
25 24 24 23 23 22 22 22 23 23 23 23 22 22 23 23 22 22 22 21 21 20 20 20 20 20 20 20 19 20 20 20
24 23 23 23 22 22 22 22 22 22 22 22 22 22 22 22 22 22 22 21 21 20 20 20 20 20 20 19 19 19 20 20
24 23 22 22 22 21 21 21 21 20 21 21 20 21 21 21 21 21 21 21 21 20 20 20 19 19 19 19 19 19 19 19
23 23 22 22 21 21 20 20 20 20 20 20 20 19 20 20 20 21 20 20 20 19 19 19 19 19 19 19 19 19 19 19
22 21 21 21 21 20 20 19 20 20 20 19 19 19 19 19 20 20 20 20 20 20 19 19 19 19 19 19 19 19 19 19
20 20 19 19 19 19 19 18 19 19 20 20 19 19 19 19 19 19 21 20 20 19 19 19 19 18 19 19 19 19 19 19
19 19 20 19 19 18 18 18 18 18 18 18 18 19 19 19 19 18 19 20 20 20 20 19 19 19 18 19 19 19 19 19
18 18 19 19 18 18 18 17 17 17 17 16 17 17 18 18 19 19 20 20 20 20 19 18 18 18 18 18 19 19 19 19
16 17 18 18 18 17 17 17 17 16 16 16 16 16 15 17 18 18 19 20 21 20 20 18 17 17 17 17 18 18 19 19
14 15 16 16 16 17 17 16 16 15 15 15 15 15 15 16 15 17 18 18 20 19 18 18 17 17 17 17 18 18 18 19
12 13 13 14 15 15 16 16 15 14 14 14 14 14 14 15 15 15 15 17 18 17 19 18 18 18 17 17 17 18 19 19
9 10 10 13 14 13 12 11 13 13 13 12 12 13 14 14 14 15 15 15 17 17 18 18 18 17 17 17 16 16 16 17
6 6 6 7 8 8 9 9 9 10 11 12 10 10 11 11 12 13 13 14 15 16 17 16 17 18 19 17 16 16 16 16
5 5 5 5 6 7 9 10 10 9 9 9 9 9 8 8 9 10 11 12 13 15 15 16 16 17 17 17 14 16 15 17
4 4 4 4 5 5 4 3 3 3 4 5 6 6 7 7 7 7 8 9 10 12 14 15 16 15 15 16 18 16 14 13
3 3 3 3 3 3 3 3 3 3 3 3 4 4 6 7 6 7 7 8 9 10 12 14 15 16 15 13 12 14 15 13
2 2 1 2 2 2 2 2 2 2 2 2 3 3 4 5 5 6 6 7 8 9 10 12 14 15 15 16 15 14 13 13
2 1 1 0 0 0 1 1 1 1 1 1 2 2 3 3 4 4 5 6 7 8 9 10 13 14 14 14 15 16 17 15
1 1 0 -0 -1 -0 -0 0 0 1 1 1 1 1 2 2 3 3 4 5 6 7 9 9 11 13 14 14 14 15 16 16

GFSFLT2_925_temp_123.txt.gz
Temp
24 24 24 24 23 24 24 23 23 23 23 23 23 22 22 22 22 22 21 21 21 21 20 21 21 21 21 20 20 20 19 19
23 23 23 23 23 22 22 22 22 23 22 22 22 22 22 22 21 21 21 21 21 21 20 20 20 20 20 20 20 20 19 19
23 23 23 22 22 22 22 22 21 21 21 21 21 20 19 19 20 20 20 20 20 20 20 20 19 20 20 20 20 18 18 19
23 23 22 22 22 21 21 21 20 21 21 20 20 20 20 18 19 20 20 20 20 19 19 19 19 19 19 19 18 19 18 19
22 23 22 22 21 21 21 20 20 20 19 19 19 18 18 18 18 18 18 18 18 18 18 18 18 18 19 18 18 18 18 18
24 23 22 21 21 20 20 20 20 19 18 19 18 18 18 18 18 18 18 18 18 18 18 18 18 18 18 18 19 19 19 18
20 19 20 21 20 20 19 19 19 19 18 18 18 18 18 18 17 18 18 18 17 18 18 18 18 18 18 18 18 18 18 18
15 16 17 18 18 19 18 19 18 18 18 18 18 18 17 17 17 18 18 18 18 17 18 18 18 18 18 18 18 18 18 19
11 13 15 16 16 17 17 18 17 17 17 17 17 17 17 17 17 17 17 17 17 17 17 17 18 18 17 17 18 18 18 18
9 10 12 13 13 14 14 15 15 16 16 16 16 16 15 15 15 16 16 17 17 17 17 16 16 17 17 17 17 17 18 19
7 8 9 10 11 12 12 13 13 13 13 14 14 14 15 15 15 15 15 15 16 17 17 17 17 17 17 17 17 17 17 17
5 5 6 8 9 9 10 10 10 10 10 10 12 13 13 14 14 14 14 14 15 15 16 16 17 17 17 17 17 17 17 17
4 4 4 5 5 6 8 8 8 7 7 7 9 10 11 11 11 12 13 13 13 14 14 15 16 17 16 16 16 16 16 16
4 3 3 3 4 4 4 5 6 6 5 5 5 6 6 7 7 8 8 8 10 11 12 13 15 16 16 16 16 15 15 15
2 2 2 1 2 4 5 5 5 6 5 5 5 4 5 5 6 7 7 7 8 9 9 11 14 15 16 16 15 16 19 18
2 1 1 1 1 2 3 3 3 3 3 4 4 4 4 4 5 5 6 6 7 7 8 9 10 13 14 16 18 17 17 16
1 2 1 1 1 1 1 1 2 2 2 3 3 3 3 3 3 3 4 4 5 6 7 8 9 10 12 14 15 16 16 15
2 1 1 0 1 0 0 0 1 1 1 1 1 2 2 2 2 2 2 3 4 4 5 6 8 9 10 11 13 16 16 16
0 -0 -0 -0 0 0 -0 -0 0 0 -0 -0 0 0 0 1 1 1 1 2 2 3 4 5 6 7 9 10 11 12 15 16
-0 -0 0 -0 -0 -0 -1 -0 -1 -1 -1 -1 -1 -1 -1 -0 -0 -0 0 1 2 2 3 4 6 7 8 9 10 11 13 15

GFSFLT2_925_temp_126.txt.gz
Temp
22 22 22 23 23 22 22 23 23 23 23 23 23 23 22 22 22 21 21 21 21 21 20 20 21 20 20 20 20 20 21 23
22 22 21 22 21 22 22 22 22 22 22 22 22 22 21 22 21 21 21 21 20 20 20 20 21 21 20 20 19 19 20 22
24 22 22 22 22 22 22 22 21 21 21 21 21 20 21 20 20 20 20 20 20 20 20 20 20 20 20 19 19 20 21 22
24 23 22 22 22 22 21 21 21 20 21 21 19 21 21 21 21 20 19 20 19 19 20 20 19 20 20 19 19 21 22 22
24 23 22 22 23 22 22 22 22 21 21 20 19 19 19 19 21 20 19 19 19 19 19 18 19 21 23 22 22 22 22 22
21 21 22 22 22 22 23 22 21 21 20 19 19 19 19 19 19 19 20 21 21 21 20 20 20 21 22 22 22 22 23 23
17 17 16 19 21 22 21 21 20 20 19 19 19 19 19 19 18 18 18 19 19 20 19 20 20 20 20 21 21 21 22 22
13 13 13 15 18 18 19 19 19 18 18 18 18 18 18 18 18 18 18 18 18 18 18 19 19 18 19 20 20 21 21 21
11 10 10 11 13 14 15 16 16 16 16 16 16 17 17 18 18 18 18 18 18 18 18 18 18 18 18 18 19 19 20 21
9 8 8 9 10 11 11 12 13 13 13 13 13 13 15 15 16 17 17 17 17 17 18 18 18 17 17 17 18 18 19 19
8 7 7 8 10 10 11 11 12 12 12 12 11 12 12 13 15 15 14 15 16 17 17 17 17 17 17 17 17 17 18 18
6 6 6 7 8 10 11 12 11 11 11 10 10 10 10 12 14 14 13 15 16 16 15 16 16 17 17 17 17 17 17 17
7 6 4 5 7 8 9 10 11 11 10 9 9 9 9 10 12 12 13 14 15 15 16 17 17 17 16 17 17 17 16 17
6 5 4 4 5 5 7 8 10 10 9 9 8 8 8 8 7 8 8 9 10 12 14 15 17 17 16 16 16 16 15 16
7 6 4 3 4 5 6 8 9 9 8 8 7 7 6 5 5 6 6 7 8 8 9 10 14 17 16 18 17 18 21 18
6 5 5 4 4 4 5 8 9 7 7 6 6 5 4 4 4 4 5 5 6 7 8 8 9 11 15 15 17 20 21 21
3 4 4 3 4 2 4 4 5 6 6 5 4 4 4 3 3 3 4 4 4 5 5 6 7 9 10 14 15 17 17 19
4 4 3 3 2 2 2 2 2 3 3 3 3 3 3 3 2 2 3 3 3 4 4 5 6 7 8 10 11 14 19 19
4 4 4 3 2 1 1 1 2 2 1 1 1 1 1 1 1 1 2 2 2 3 3 4 5 6 7 8 9 10 12 14
2 3 3 2 2 1 1 1 1 1 -0 -0 -0 0 0 -0 0 0 1 1 1 2 2 4 5 5 5 6 7 9 10 12

GFSFLT2_925_temp_129.txt.gz
Temp
24 24 23 23 23 23 23 23 23 23 23 23 22 22 22 22 22 21 21 21 21 20 20 20 20 20 20 20 20 21 21 24
25 24 24 24 23 23 23 23 23 23 23 23 22 22 22 21 21 21 21 21 21 21 20 20 20 20 20 20 20 20 20 22
25 25 25 24 24 24 22 22 22 22 21 22 22 21 21 20 20 20 20 21 21 21 21 20 20 20 20 20 19 19 21 22
26 24 23 24 25 25 23 23 21 21 21 21 20 21 22 23 23 22 21 20 20 20 21 20 20 20 20 20 18 20 22 24
22 21 22 24 25 25 25 25 25 24 23 22 22 21 21 21 22 21 20 20 20 20 19 19 20 21 23 22 21 21 23 24
19 18 17 18 20 24 25 26 26 25 25 22 21 21 20 20 21 21 21 22 21 21 20 21 21 21 22 23 24 24 24 25
15 15 14 15 15 16 20 21 24 23 23 21 20 20 20 20 20 19 20 20 20 20 20 20 20 20 21 22 23 23 23 24
13 13 12 13 13 14 15 17 18 18 18 18 18 18 18 18 19 19 19 19 19 19 19 20 19 19 19 20 21 22 22 23
12 12 11 11 13 12 12 14 14 15 15 15 15 16 16 17 17 17 17 18 18 18 19 19 19 19 19 20 20 20 20 21
11 11 11 11 11 12 12 12 12 12 12 13 13 13 14 14 15 16 16 16 16 17 17 19 19 18 19 18 19 19 19 20
11 10 9 11 11 11 12 12 12 12 12 11 12 12 12 13 15 16 15 15 16 16 16 16 17 18 17 18 18 18 19 19
10 9 8 9 11 12 11 12 12 12 12 11 11 11 11 12 15 15 15 16 17 17 17 17 16 16 16 17 17 18 18 18
11 10 9 8 9 10 12 11 10 11 11 11 11 10 10 10 10 11 11 12 12 13 15 16 17 18 16 17 17 17 18 17
11 10 9 9 9 9 9 10 11 10 9 10 10 9 8 7 7 7 8 8 9 9 10 11 14 17 18 17 17 18 17 16
10 9 9 8 8 10 10 11 12 11 11 9 9 8 7 6 6 6 6 7 7 8 8 9 10 12 14 17 17 19 21 17
8 8 8 7 7 8 8 9 10 10 10 9 8 7 7 5 5 5 5 5 6 6 7 7 7 9 10 14 16 17 16 19
8 8 7 6 5 5 6 6 6 7 7 7 8 7 6 5 4 4 4 4 4 5 5 5 6 7 8 9 11 14 15 17
8 8 8 6 5 5 4 4 3 4 3 3 4 5 5 3 3 3 3 3 3 3 4 4 5 6 7 8 9 10 13 15
6 7 7 5 4 4 3 3 4 4 2 2 1 2 1 1 1 2 2 2 2 2 3 3 4 5 6 6 7 8 9 10
5 6 5 4 3 3 2 2 2 2 1 1 1 0 0 0 -0 0 0 1 1 1 2 3 3 3 4 5 5 6 6 7

GFSFLT2_925_temp_132.txt.gz
Temp
25 24 24 23 23 23 23 23 23 23 23 23 23 23 23 22 22 22 21 21 21 20 20 20 20 20 20 20 20 21 22 23
25 25 25 24 24 24 23 23 22 22 22 22 22 22 22 22 21 21 21 21 21 21 20 20 20 20 20 20 20 20 21 23
22 22 22 23 24 24 23 23 22 22 22 22 22 22 21 21 21 21 21 21 21 21 21 21 20 20 20 20 20 20 20 21
20 19 20 21 23 23 25 24 23 23 23 21 21 21 21 21 22 22 22 22 21 21 21 21 20 20 19 20 20 21 20 21
17 17 17 17 20 19 21 22 24 24 23 23 22 21 21 21 22 22 21 21 20 20 20 20 20 20 20 21 21 22 21 22
15 15 15 15 16 17 18 19 21 22 23 22 22 22 20 20 20 21 20 20 20 20 20 20 20 20 20 21 21 22 21 22
13 13 12 13 14 15 15 16 17 17 17 18 19 19 19 19 19 19 20 20 20 20 20 20 20 20 20 21 21 21 22 22
13 12 12 12 13 13 14 14 15 15 15 16 16 16 17 18 17 18 18 18 18 19 20 20 20 20 20 21 21 22 22 23
12 12 11 12 12 13 13 13 13 13 13 14 14 15 15 15 16 16 17 17 18 18 17 18 19 20 20 21 21 21 21 22
12 10 10 11 12 12 12 12 13 12 12 12 12 12 13 14 15 16 16 16 17 17 18 18 18 17 18 17 18 18 19 21
11 10 9 10 12 12 12 12 12 12 12 12 11 11 12 13 14 14 14 15 16 16 16 16 16 16 17 17 18 18 17 16
12 11 10 10 10 11 13 12 11 11 11 11 10 10 10 10 11 11 11 12 12 13 13 14 15 16 17 17 17 18 18 18
11 11 10 10 11 10 11 11 12 10 10 10 9 9 8 8 7 8 8 9 9 9 10 10 12 13 14 16 17 17 18 18
11 10 10 9 9 10 11 11 12 11 10 9 9 8 7 7 6 6 6 7 7 7 8 8 9 10 11 13 15 17 19 18
9 9 9 7 7 8 9 11 11 10 10 9 9 8 7 6 5 5 5 5 6 6 6 6 7 8 9 11 13 14 14 17
9 9 8 7 6 6 7 7 8 7 7 7 8 7 6 5 4 4 4 4 5 5 5 5 6 7 8 10 9 10 13 14
9 9 8 7 6 5 5 5 5 5 4 5 4 4 4 3 3 3 3 3 3 4 4 4 5 5 6 7 8 10 10 12
8 8 7 6 5 5 4 4 4 4 4 3 2 2 2 1 1 1 2 2 2 2 3 3 4 5 5 6 7 8 9 10
7 7 6 5 4 3 3 3 3 3 2 2 1 1 1 0 0 0 1 1 1 2 2 3 3 3 3 4 4 5 6 7
6 6 5 4 3 3 2 2 2 1 1 1 1 0 0 -0 0 0 0 0 0 1 1 1 1 1 2 2 2 3 4 5

GFSFLT2_925_temp_135.txt.gz
Temp
21 21 21 22 23 24 24 23 23 23 22 22 22 22 22 22 22 22 22 22 21 21 20 20 20 20 20 20 21 21 22 22
21 21 21 21 21 22 23 23 23 23 22 22 22 22 22 21 21 21 21 21 21 21 21 20 20 20 20 20 20 20 22 23
20 21 21 21 20 21 20 22 23 23 23 23 22 22 22 22 22 22 22 22 22 21 21 21 20 20 20 20 20 20 21 22
17 18 19 19 19 19 19 19 19 20 22 23 23 22 22 22 22 21 22 22 22 21 21 21 20 19 20 20 19 20 20 21
16 15 16 16 16 16 16 17 18 19 19 20 21 21 21 20 20 21 21 21 21 21 20 20 20 20 19 19 20 20 20 21
14 13 14 14 14 15 15 15 16 16 17 19 20 21 20 20 20 20 20 20 20 20 20 20 20 21 20 20 19 20 21 21
12 12 13 13 13 13 14 14 14 15 16 16 17 17 18 18 18 18 18 19 19 19 19 19 19 19 20 20 20 20 20 21
12 11 12 12 13 12 13 13 13 13 13 14 15 15 16 17 17 17 17 17 18 18 18 18 19 18 19 18 18 18 18 19
11 11 11 12 12 12 12 12 12 12 12 12 12 13 13 16 16 15 15 16 17 17 17 18 18 18 18 18 18 18 18 17
10 10 11 11 12 12 12 12 11 11 11 11 11 12 13 13 13 13 14 15 15 15 14 15 15 15 16 17 17 18 18 19
10 10 10 11 11 12 12 11 11 11 10 10 10 10 11 11 11 10 12 13 13 12 13 12 13 14 14 16 17 17 18 19
10 10 9 10 10 11 11 11 11 11 10 9 9 9 9 9 9 9 10 10 10 10 10 11 11 10 13 15 16 17 17 18
9 9 9 9 9 9 10 11 11 10 9 9 8 8 7 7 6 6 7 7 7 7 7 7 9 9 11 12 16 18 18 18
9 8 8 7 7 8 8 9 9 8 8 8 7 7 6 6 5 5 5 5 6 6 6 6 7 7 9 9 11 14 15 16
9 8 7 6 6 7 8 9 8 7 6 6 5 4 4 4 4 4 4 4 4 4 5 5 6 7 7 8 10 10 10 14
9 8 6 6 5 5 5 5 5 4 4 4 4 3 3 3 2 3 3 3 3 3 4 4 5 6 7 8 8 8 10 10
8 7 6 5 4 4 4 4 4 3 3 2 2 2 1 1 1 1 1 2 2 2 2 3 4 4 5 6 7 8 9 9
8 6 5 4 3 3 3 3 3 2 2 1 1 1 1 1 0 1 1 1 1 1 2 2 3 3 3 4 5 6 7 8
7 5 4 3 3 2 2 2 2 1 1 1 0 0 -0 -0 0 0 0 1 1 1 1 1 1 1 2 2 2 4 4 5
5 4 3 3 3 2 2 1 1 1 1 0 -0 -0 -0 -0 -0 -0 -0 -0 0 0 0 0 -0 0 0 0 0 1 1 2

GFSFLT2_925_temp_141.txt.gz
Temp
20 19 19 19 20 20 20 20 20 20 20 21 21 22 22 22 22 21 21 21 21 21 21 21 20 20 20 20 20 20 19 20
19 19 19 20 19 19 19 19 20 20 20 20 20 20 20 21 21 21 21 20 20 20 20 20 20 20 20 20 20 20 20 20
18 18 18 19 19 18 19 20 19 18 19 19 19 20 20 20 20 20 20 20 20 20 19 19 20 19 19 19 19 19 20 20
15 16 16 17 17 17 17 18 18 17 18 18 18 18 19 19 19 19 19 19 19 19 19 19 19 19 19 19 19 20 20 20
14 15 15 15 15 15 16 16 16 17 17 17 17 17 17 18 18 19 19 19 20 18 18 18 18 19 19 20 19 20 20 20
13 13 13 13 14 14 14 14 15 16 15 16 16 16 17 17 17 17 17 17 17 17 17 17 17 18 18 19 19 19 19 19
12 12 12 12 12 13 13 13 13 13 14 14 15 15 15 15 16 16 16 16 16 17 17 17 17 17 17 17 18 18 18 18
11 12 11 12 11 11 12 12 12 13 13 13 13 13 14 14 14 14 14 14 14 15 15 16 17 16 17 17 17 17 17 18
11 11 11 11 11 11 11 11 11 11 11 12 12 12 12 13 12 13 13 12 13 14 14 14 15 16 16 16 16 16 17 17
11 11 11 11 10 10 10 10 10 10 10 10 10 10 10 11 10 10 11 11 11 12 12 12 12 13 14 16 16 17 17 17
11 11 11 10 10 9 9 9 9 9 9 8 8 9 9 9 9 9 9 9 10 9 10 9 9 10 11 14 16 17 17 17
10 10 10 10 9 9 8 8 7 7 7 6 6 7 7 7 7 7 7 8 7 7 7 8 8 8 10 12 14 16 17 17
9 9 9 10 9 8 8 6 6 6 6 5 6 5 5 5 5 5 5 4 4 4 5 5 6 7 8 10 13 14 14 14
7 7 8 9 9 8 7 6 5 4 4 4 4 4 4 4 3 3 3 3 3 3 3 3 5 5 6 7 8 11 13 13
7 7 7 7 7 7 6 5 4 3 3 3 2 2 2 2 2 2 2 2 2 3 3 3 3 5 5 6 7 7 8 11
6 6 6 6 6 6 6 4 3 2 2 2 2 1 1 1 1 1 1 2 2 2 2 2 3 4 5 5 6 6 8 7
6 5 5 4 5 4 4 2 2 1 1 1 1 1 1 1 1 1 1 1 1 1 1 2 2 2 3 3 4 5 7 7
5 5 4 3 3 3 3 2 1 1 1 0 0 0 0 0 0 1 1 0 0 0 1 0 0 1 1 1 2 3 4 5
4 4 3 3 2 2 2 1 1 1 0 0 -0 -0 -1 -0 -0 -0 0 0 -0 -0 -0 -1 -1 -1 -1 -1 -0 0 0 1
4 3 2 2 2 1 1 1 0 0 -0 -0 -0 -1 -1 -1 -1 -1 -1 -0 -1 -1 -1 -1 -2 -2 -3 -2 -2 -2 -1 -1